Time,TemperatureF,DewpointF,PressureIn,WindDirection,WindDirectionDegrees,WindSpeedMPH,WindSpeedGustMPH,Humidity,HourlyPrecipIn,Conditions,Clouds,dailyrainin,SoftwareType,DateUTC
2013-04-21 00:01:00,33.7,21.0,30.45,NW,312,0.0,-999.0,60,-99.99,,,0.00,weatherlink.com 1.10,2013-04-21 04:01:00,
2013-04-21 00:16:00,33.2,21.0,30.45,NW,312,0.0,-999.0,62,-99.99,,,0.00,weatherlink.com 1.10,2013-04-21 04:16:00,
2013-04-21 00:31:00,33.1,21.0,30.45,NW,312,0.0,-999.0,62,-99.99,,,0.00,weatherlink.com 1.10,2013-04-21 04:31:00,
2013-04-21 00:46:00,33.0,22.0,30.45,NW,312,0.0,-999.0,63,-99.99,,,0.00,weatherlink.com 1.10,2013-04-21 04:46:00,
2013-04-21 01:01:00,32.8,22.0,30.46,NW,312,0.0,-999.0,64,-99.99,,,0.00,weatherlink.com 1.10,2013-04-21 05:01:00,
2013-04-21 01:16:00,32.3,21.0,30.46,NW,312,0.0,-999.0,63,-99.99,,,0.00,weatherlink.com 1.10,2013-04-21 05:16:00,
2013-04-21 01:31:00,31.5,22.0,30.47,NW,312,0.0,-999.0,67,-99.99,,,0.00,weatherlink.com 1.10,2013-04-21 05:31:00,
2013-04-21 01:47:00,31.7,22.0,30.47,NW,312,0.0,-999.0,67,-99.99,,,0.00,weatherlink.com 1.10,2013-04-21 05:47:00,
2013-04-21 02:02:00,31.4,23.0,30.47,NW,312,0.0,-999.0,70,-99.99,,,0.00,weatherlink.com 1.10,2013-04-21 06:02:00,
2013-04-21 02:17:00,31.7,22.0,30.47,NW,312,0.0,-999.0,67,-99.99,,,0.00,weatherlink.com 1.10,2013-04-21 06:17:00,
2013-04-21 02:32:00,31.8,22.0,30.47,NW,312,0.0,-999.0,67,-99.99,,,0.00,weatherlink.com 1.10,2013-04-21 06:32:00,
2013-04-21 02:47:00,31.5,22.0,30.47,NW,312,0.0,-999.0,68,-99.99,,,0.00,weatherlink.com 1.10,2013-04-21 06:47:00,
2013-04-21 03:02:00,31.4,22.0,30.48,NW,312,0.0,-999.0,68,-99.99,,,0.00,weatherlink.com 1.10,2013-04-21 07:02:00,
2013-04-21 03:17:00,31.1,22.0,30.48,NW,312,0.0,-999.0,70,-99.99,,,0.00,weatherlink.com 1.10,2013-04-21 07:17:00,
2013-04-21 03:32:00,31.2,22.0,30.48,NW,312,2.0,-999.0,70,-99.99,,,0.00,weatherlink.com 1.10,2013-04-21 07:32:00,
2013-04-21 03:47:00,31.4,22.0,30.49,NW,312,0.0,-999.0,69,-99.99,,,0.00,weatherlink.com 1.10,2013-04-21 07:47:00,
2013-04-21 04:17:00,30.7,23.0,30.49,NW,312,2.0,-999.0,72,-99.99,,,0.00,weatherlink.com 1.10,2013-04-21 08:17:00,
2013-04-21 04:32:00,30.5,22.0,30.50,NW,312,1.0,-999.0,72,-99.99,,,0.00,weatherlink.com 1.10,2013-04-21 08:32:00,
2013-04-21 04:48:00,30.6,23.0,30.50,NW,312,0.0,-999.0,72,-99.99,,,0.00,weatherlink.com 1.10,2013-04-21 08:48:00,
2013-04-21 05:03:00,30.5,23.0,30.51,NW,312,2.0,-999.0,73,-99.99,,,0.00,weatherlink.com 1.10,2013-04-21 09:03:00,
2013-04-21 05:18:00,30.4,22.0,30.51,NW,312,1.0,-999.0,72,-99.99,,,0.00,weatherlink.com 1.10,2013-04-21 09:18:00,
2013-04-21 05:33:00,30.2,23.0,30.51,NW,312,1.0,-999.0,73,-99.99,,,0.00,weatherlink.com 1.10,2013-04-21 09:33:00,
2013-04-21 05:48:00,29.8,22.0,30.51,NW,312,0.0,-999.0,74,-99.99,,,0.00,weatherlink.com 1.10,2013-04-21 09:48:00,
2013-04-21 06:03:00,29.7,23.0,30.52,NW,312,0.0,-999.0,75,-99.99,,,0.00,weatherlink.com 1.10,2013-04-21 10:03:00,
2013-04-21 06:18:00,29.6,23.0,30.52,NW,312,0.0,-999.0,75,-99.99,,,0.00,weatherlink.com 1.10,2013-04-21 10:18:00,
2013-04-21 06:33:00,29.5,23.0,30.53,NW,312,0.0,-999.0,75,-99.99,,,0.00,weatherlink.com 1.10,2013-04-21 10:33:00,
2013-04-21 06:48:00,29.5,23.0,30.54,NW,312,0.0,-999.0,75,-99.99,,,0.00,weatherlink.com 1.10,2013-04-21 10:48:00,
2013-04-21 07:03:00,29.7,23.0,30.54,NW,312,2.0,-999.0,75,-99.99,,,0.00,weatherlink.com 1.10,2013-04-21 11:03:00,
2013-04-21 07:19:00,30.3,23.0,30.55,NW,312,1.0,-999.0,74,-99.99,,,0.00,weatherlink.com 1.10,2013-04-21 11:19:00,
2013-04-21 07:34:00,30.8,23.0,30.56,NW,312,0.0,-999.0,74,-99.99,,,0.00,weatherlink.com 1.10,2013-04-21 11:34:00,
2013-04-21 07:49:00,31.4,24.0,30.57,NW,313,1.0,-999.0,74,-99.99,,,0.00,weatherlink.com 1.10,2013-04-21 11:49:00,
2013-04-21 08:04:00,32.3,25.0,30.57,NNW,332,5.0,-999.0,73,-99.99,,,0.00,weatherlink.com 1.10,2013-04-21 12:04:00,
2013-04-21 08:19:00,33.2,25.0,30.57,NE,43,5.0,-999.0,72,-99.99,,,0.00,weatherlink.com 1.10,2013-04-21 12:19:00,
2013-04-21 08:34:00,34.0,26.0,30.58,ENE,72,7.0,-999.0,73,-99.99,,,0.00,weatherlink.com 1.10,2013-04-21 12:34:00,
2013-04-21 08:49:00,35.2,27.0,30.59,East,92,12.0,-999.0,73,-99.99,,,0.00,weatherlink.com 1.10,2013-04-21 12:49:00,
2013-04-21 09:04:00,36.2,28.0,30.59,East,94,8.0,-999.0,71,-99.99,,,0.00,weatherlink.com 1.10,2013-04-21 13:04:00,
2013-04-21 09:19:00,36.6,28.0,30.58,ENE,75,13.0,-999.0,70,-99.99,,,0.00,weatherlink.com 1.10,2013-04-21 13:19:00,
2013-04-21 09:35:00,37.0,28.0,30.59,East,90,11.0,-999.0,70,-99.99,,,0.00,weatherlink.com 1.10,2013-04-21 13:35:00,
2013-04-21 09:50:00,38.2,29.0,30.59,ESE,103,6.0,-999.0,69,-99.99,,,0.00,weatherlink.com 1.10,2013-04-21 13:50:00,
2013-04-21 10:05:00,38.6,29.0,30.59,East,98,13.0,-999.0,69,-99.99,,,0.00,weatherlink.com 1.10,2013-04-21 14:05:00,
2013-04-21 10:20:00,38.9,29.0,30.59,East,88,7.0,-999.0,67,-99.99,,,0.00,weatherlink.com 1.10,2013-04-21 14:20:00,
2013-04-21 10:35:00,39.8,29.0,30.59,East,86,13.0,-999.0,65,-99.99,,,0.00,weatherlink.com 1.10,2013-04-21 14:35:00,
2013-04-21 10:50:00,39.9,29.0,30.59,ESE,105,12.0,-999.0,64,-99.99,,,0.00,weatherlink.com 1.10,2013-04-21 14:50:00,
2013-04-21 11:05:00,41.1,28.0,30.59,East,79,6.0,-999.0,59,-99.99,,,0.00,weatherlink.com 1.10,2013-04-21 15:05:00,
2013-04-21 11:20:00,42.0,29.0,30.59,ESE,105,13.0,-999.0,60,-99.99,,,0.00,weatherlink.com 1.10,2013-04-21 15:20:00,
2013-04-21 11:35:00,42.3,27.0,30.60,East,91,14.0,-999.0,56,-99.99,,,0.00,weatherlink.com 1.10,2013-04-21 15:35:00,
2013-04-21 11:50:00,42.4,28.0,30.59,East,84,8.0,-999.0,56,-99.99,,,0.00,weatherlink.com 1.10,2013-04-21 15:50:00,
2013-04-21 12:06:00,43.3,28.0,30.58,SE,132,5.0,-999.0,55,-99.99,,,0.00,weatherlink.com 1.10,2013-04-21 16:06:00,
2013-04-21 12:21:00,43.4,27.0,30.58,East,82,8.0,-999.0,53,-99.99,,,0.00,weatherlink.com 1.10,2013-04-21 16:21:00,
2013-04-21 12:36:00,43.5,28.0,30.58,ESE,121,13.0,-999.0,55,-99.99,,,0.00,weatherlink.com 1.10,2013-04-21 16:36:00,
2013-04-21 12:51:00,44.3,28.0,30.57,ESE,109,7.0,-999.0,53,-99.99,,,0.00,weatherlink.com 1.10,2013-04-21 16:51:00,
2013-04-21 13:06:00,44.6,27.0,30.56,East,97,8.0,-999.0,51,-99.99,,,0.00,weatherlink.com 1.10,2013-04-21 17:06:00,
2013-04-21 13:21:00,44.7,27.0,30.56,ESE,111,7.0,-999.0,50,-99.99,,,0.00,weatherlink.com 1.10,2013-04-21 17:21:00,
2013-04-21 13:36:00,45.6,28.0,30.55,SE,126,13.0,-999.0,50,-99.99,,,0.00,weatherlink.com 1.10,2013-04-21 17:36:00,
2013-04-21 13:51:00,45.6,29.0,30.55,SSE,160,5.0,-999.0,52,-99.99,,,0.00,weatherlink.com 1.10,2013-04-21 17:51:00,
2013-04-21 14:06:00,46.0,27.0,30.54,East,87,10.0,-999.0,48,-99.99,,,0.00,weatherlink.com 1.10,2013-04-21 18:06:00,
2013-04-21 14:21:00,46.4,29.0,30.53,ESE,109,9.0,-999.0,51,-99.99,,,0.00,weatherlink.com 1.10,2013-04-21 18:21:00,
2013-04-21 14:36:00,46.6,28.0,30.53,ESE,117,14.0,-999.0,48,-99.99,,,0.00,weatherlink.com 1.10,2013-04-21 18:36:00,
2013-04-21 14:52:00,46.7,28.0,30.52,East,92,4.0,-999.0,48,-99.99,,,0.00,weatherlink.com 1.10,2013-04-21 18:52:00,
2013-04-21 15:07:00,47.6,28.0,30.52,ESE,105,11.0,-999.0,47,-99.99,,,0.00,weatherlink.com 1.10,2013-04-21 19:07:00,
2013-04-21 15:22:00,47.6,29.0,30.51,East,96,0.0,-999.0,48,-99.99,,,0.00,weatherlink.com 1.10,2013-04-21 19:22:00,
2013-04-21 15:37:00,48.3,28.0,30.50,ENE,74,5.0,-999.0,45,-99.99,,,0.00,weatherlink.com 1.10,2013-04-21 19:37:00,
2013-04-21 15:52:00,48.2,30.0,30.49,ESE,108,6.0,-999.0,49,-99.99,,,0.00,weatherlink.com 1.10,2013-04-21 19:52:00,
2013-04-21 16:07:00,48.2,29.0,30.48,East,89,4.0,-999.0,48,-99.99,,,0.00,weatherlink.com 1.10,2013-04-21 20:07:00,
2013-04-21 16:22:00,48.6,29.0,30.48,East,84,10.0,-999.0,47,-99.99,,,0.00,weatherlink.com 1.10,2013-04-21 20:22:00,
2013-04-21 16:37:00,49.0,30.0,30.47,East,98,2.0,-999.0,49,-99.99,,,0.00,weatherlink.com 1.10,2013-04-21 20:37:00,
2013-04-21 16:52:00,49.5,30.0,30.46,ESE,105,6.0,-999.0,47,-99.99,,,0.00,weatherlink.com 1.10,2013-04-21 20:52:00,
2013-04-21 17:08:00,49.2,29.0,30.46,ENE,69,8.0,-999.0,46,-99.99,,,0.00,weatherlink.com 1.10,2013-04-21 21:08:00,
2013-04-21 17:23:00,49.5,29.0,30.46,East,96,13.0,-999.0,46,-99.99,,,0.00,weatherlink.com 1.10,2013-04-21 21:23:00,
2013-04-21 17:38:00,49.5,29.0,30.46,East,86,11.0,-999.0,46,-99.99,,,0.00,weatherlink.com 1.10,2013-04-21 21:38:00,
2013-04-21 17:53:00,49.7,29.0,30.45,East,101,6.0,-999.0,46,-99.99,,,0.00,weatherlink.com 1.10,2013-04-21 21:53:00,
2013-04-21 18:08:00,49.7,30.0,30.46,ESE,104,12.0,-999.0,47,-99.99,,,0.00,weatherlink.com 1.10,2013-04-21 22:08:00,
2013-04-21 18:23:00,50.0,30.0,30.46,East,92,11.0,-999.0,47,-99.99,,,0.00,weatherlink.com 1.10,2013-04-21 22:23:00,
2013-04-21 18:38:00,49.7,30.0,30.46,ENE,74,8.0,-999.0,47,-99.99,,,0.00,weatherlink.com 1.10,2013-04-21 22:38:00,
2013-04-21 18:53:00,50.0,31.0,30.45,East,96,8.0,-999.0,48,-99.99,,,0.00,weatherlink.com 1.10,2013-04-21 22:53:00,
2013-04-21 19:08:00,49.6,30.0,30.45,East,81,13.0,-999.0,47,-99.99,,,0.00,weatherlink.com 1.10,2013-04-21 23:08:00,
2013-04-21 19:23:00,49.4,31.0,30.45,East,93,12.0,-999.0,49,-99.99,,,0.00,weatherlink.com 1.10,2013-04-21 23:23:00,
2013-04-21 19:38:00,49.2,30.0,30.45,East,100,9.0,-999.0,48,-99.99,,,0.00,weatherlink.com 1.10,2013-04-21 23:38:00,
2013-04-21 19:53:00,49.0,30.0,30.45,East,97,6.0,-999.0,49,-99.99,,,0.00,weatherlink.com 1.10,2013-04-21 23:53:00,
2013-04-21 20:08:00,48.1,34.0,30.45,ENE,76,7.0,-999.0,58,-99.99,,,0.00,weatherlink.com 1.10,2013-04-22 00:08:00,
2013-04-21 20:24:00,46.0,34.0,30.45,ENE,65,11.0,-999.0,63,-99.99,,,0.00,weatherlink.com 1.10,2013-04-22 00:24:00,
2013-04-21 20:39:00,44.8,34.0,30.45,ENE,68,7.0,-999.0,66,-99.99,,,0.00,weatherlink.com 1.10,2013-04-22 00:39:00,
2013-04-21 20:54:00,43.9,34.0,30.45,ENE,62,10.0,-999.0,68,-99.99,,,0.00,weatherlink.com 1.10,2013-04-22 00:54:00,
2013-04-21 21:09:00,43.1,34.0,30.46,ENE,71,8.0,-999.0,69,-99.99,,,0.00,weatherlink.com 1.10,2013-04-22 01:09:00,
2013-04-21 21:24:00,42.1,34.0,30.46,ENE,67,5.0,-999.0,72,-99.99,,,0.00,weatherlink.com 1.10,2013-04-22 01:24:00,
2013-04-21 21:39:00,41.2,33.0,30.46,ENE,61,8.0,-999.0,73,-99.99,,,0.00,weatherlink.com 1.10,2013-04-22 01:39:00,
2013-04-21 21:54:00,40.5,33.0,30.47,NE,55,10.0,-999.0,74,-99.99,,,0.00,weatherlink.com 1.10,2013-04-22 01:54:00,
2013-04-21 22:09:00,40.0,33.0,30.47,ENE,66,6.0,-999.0,75,-99.99,,,0.00,weatherlink.com 1.10,2013-04-22 02:09:00,
2013-04-21 22:24:00,39.4,32.0,30.47,ENE,59,5.0,-999.0,76,-99.99,,,0.00,weatherlink.com 1.10,2013-04-22 02:24:00,
2013-04-21 22:39:00,38.8,32.0,30.46,ENE,71,10.0,-999.0,77,-99.99,,,0.00,weatherlink.com 1.10,2013-04-22 02:39:00,
2013-04-21 22:54:00,38.4,32.0,30.46,ENE,72,5.0,-999.0,78,-99.99,,,0.00,weatherlink.com 1.10,2013-04-22 02:54:00,
2013-04-21 23:09:00,38.0,32.0,30.45,ENE,69,4.0,-999.0,78,-99.99,,,0.00,weatherlink.com 1.10,2013-04-22 03:09:00,
2013-04-21 23:24:00,37.7,32.0,30.45,ENE,71,4.0,-999.0,79,-99.99,,,0.00,weatherlink.com 1.10,2013-04-22 03:24:00,
2013-04-21 23:40:00,37.3,31.0,30.44,ENE,74,6.0,-999.0,79,-99.99,,,0.00,weatherlink.com 1.10,2013-04-22 03:40:00,
2013-04-21 23:55:00,37.1,31.0,30.44,ENE,72,4.0,-999.0,79,-99.99,,,0.00,weatherlink.com 1.10,2013-04-22 03:55:00,